Kuchera_Ratio
0.0 0.0 0.5 0.4 0.8 1.7 2.6 4.0 8.5 10.9 10.4 3.7 4.1 0.0 0.0 0.0 0.0 0.0 0.0 0.0 0.0 0.0 0.0 0.0 0.0 0.0 0.0 0.0 0.0 0.0 0.0 0.0 0.0 0.0 0.0 0.0 0.0 0.0
0.4 1.0 1.3 1.7 2.0 2.4 3.1 4.0 5.6 8.7 12.6 5.5 4.1 2.8 0.0 0.0 0.0 0.0 0.0 0.0 0.0 0.0 0.0 0.0 0.0 0.0 0.0 0.0 0.0 0.0 0.0 0.0 0.0 0.0 0.0 0.0 0.0 0.0
1.5 2.2 2.5 2.7 3.2 3.7 4.2 4.8 6.8 8.0 11.5 6.9 3.3 1.0 4.4 4.0 0.1 0.0 0.0 0.0 0.0 0.0 0.0 0.0 0.0 0.0 0.0 0.0 0.0 0.0 0.0 0.0 0.0 0.0 0.0 0.0 0.0 0.0
2.7 3.1 3.5 0.0 4.4 4.5 5.2 6.4 7.4 6.3 9.3 11.1 5.5 4.4 5.5 3.0 2.1 1.9 0.0 0.0 0.0 0.0 0.0 0.0 0.0 0.0 0.0 0.0 0.0 0.0 0.0 0.0 0.0 0.0 0.0 0.0 0.0 0.0
3.6 4.1 4.4 4.7 5.5 5.8 6.5 8.0 7.0 3.7 6.0 8.4 8.5 4.1 4.0 4.5 3.8 3.6 1.9 0.4 0.0 0.0 0.0 0.0 0.0 0.0 0.0 0.0 0.0 0.0 0.0 0.0 0.0 0.0 0.0 0.0 0.0 0.0
4.3 4.7 5.3 5.9 6.6 7.3 7.1 7.5 5.0 7.0 6.5 7.7 7.5 6.7 4.6 1.2 1.8 6.8 7.0 3.4 3.5 0.0 0.0 0.0 0.0 0.0 0.0 0.0 0.0 0.0 0.0 0.0 0.0 0.0 0.0 0.0 0.0 0.0
5.5 5.6 4.1 3.1 0.0 0.0 1.2 4.4 5.6 6.5 7.1 8.2 8.2 6.0 5.8 5.5 7.5 5.7 7.4 5.9 4.5 3.8 3.4 2.2 1.1 0.7 0.1 0.0 0.0 0.0 0.0 0.0 0.0 0.0 0.0 0.0 0.0 0.0
7.5 7.5 6.0 3.0 3.7 0.0 0.0 0.0 0.0 3.7 6.4 8.2 7.6 8.4 8.5 6.9 6.2 6.9 6.9 9.7 11.1 1.2 5.6 4.9 1.9 2.5 1.6 1.3 0.0 0.0 0.0 0.0 0.0 0.0 0.0 0.0 0.0 0.0
9.0 9.2 7.6 2.6 4.0 6.7 3.9 0.7 0.8 0.0 0.0 4.1 8.5 9.2 9.4 7.4 6.5 7.9 8.5 8.5 9.9 4.7 7.0 7.9 3.7 5.3 1.5 0.0 0.0 0.0 0.0 0.0 0.0 0.0 0.0 0.0 0.0 0.0
9.7 9.9 10.4 9.7 8.2 4.9 5.1 6.0 5.7 7.2 5.8 4.0 4.9 5.3 4.7 5.4 4.8 5.9 6.7 5.9 5.1 3.5 3.4 9.8 4.7 6.7 3.0 2.1 0.0 0.0 0.0 0.0 0.0 0.0 0.0 0.0 0.0 0.0
9.1 8.8 9.6 8.8 3.5 0.0 3.7 7.2 9.0 8.9 1.8 0.0 0.0 0.0 0.0 0.0 0.0 2.6 6.8 9.7 11.2 7.6 7.0 7.0 7.7 8.0 6.2 5.6 2.2 0.0 0.0 0.0 0.0 0.0 0.0 0.0 0.0 0.0
10.1 9.1 3.4 3.3 0.0 0.0 3.7 7.7 11.2 10.8 9.2 8.3 9.1 8.3 5.7 6.2 1.4 4.4 6.3 10.6 10.7 11.5 7.1 10.0 8.4 9.7 11.9 5.5 4.5 4.6 4.2 0.0 0.0 0.0 0.0 0.0 0.0 1.7
8.3 9.5 8.8 2.3 0.5 0.2 0.5 9.2 8.9 3.9 7.5 11.8 11.8 11.4 10.4 9.4 8.4 6.2 4.6 7.4 9.9 10.1 5.6 4.4 8.4 10.5 10.4 11.7 6.9 6.0 5.1 4.1 4.4 3.3 0.0 0.0 0.0 0.0
9.9 10.2 9.6 2.3 2.2 2.3 4.4 2.8 1.7 3.9 10.9 12.3 12.3 12.1 12.2 11.7 10.8 10.1 8.5 5.9 5.2 7.0 5.8 5.1 8.2 8.2 8.9 10.9 12.6 7.5 6.3 5.3 5.1 5.3 4.9 2.3 0.0 0.0
9.1 5.7 4.1 3.9 4.6 7.1 5.3 3.7 4.7 11.4 12.4 13.2 12.8 12.3 11.0 9.5 8.9 10.3 9.3 7.3 8.6 8.0 6.2 6.5 7.3 7.4 7.8 9.6 10.8 10.0 9.8 7.1 6.5 6.6 6.4 6.7 5.9 6.7
6.7 11.7 7.5 7.1 6.8 7.4 8.9 9.7 11.0 12.0 11.4 12.6 12.8 11.8 10.2 10.5 10.9 9.7 12.3 12.6 12.4 10.4 7.1 7.6 7.9 8.1 8.8 8.5 9.2 9.9 8.1 11.7 8.5 8.2 8.5 8.3 7.6 7.8
7.6 13.5 13.9 13.4 13.4 12.8 12.6 12.4 12.4 12.3 12.4 12.1 13.1 12.9 12.3 12.2 12.2 10.7 12.4 13.0 13.8 13.1 11.8 10.5 8.7 7.2 7.5 8.8 10.6 9.3 9.0 8.9 10.7 10.3 11.2 11.6 10.1 8.6
12.3 14.8 14.6 14.1 14.2 13.7 13.5 13.3 13.1 12.4 12.9 12.8 13.0 13.1 13.4 13.8 13.7 13.0 13.0 13.8 14.3 13.9 12.6 10.3 12.5 12.7 12.5 11.9 7.2 12.5 12.3 11.6 10.5 9.6 11.5 12.3 11.9 9.6
14.4 14.8 14.6 14.3 14.1 13.5 13.4 13.5 14.2 13.0 12.5 13.7 13.6 13.4 13.5 14.0 13.7 13.9 13.8 14.1 14.6 14.2 13.9 12.9 13.5 13.5 14.4 15.6 10.2 2.4 12.3 10.7 10.5 12.4 12.8 13.3 13.6 11.8
13.8 14.5 14.3 13.7 13.6 14.0 13.8 13.9 13.9 13.5 13.7 14.2 14.0 14.4 14.4 14.4 14.7 14.6 14.2 14.7 14.6 14.4 13.8 13.6 14.9 13.5 14.1 15.1 15.0 11.3 4.5 10.9 12.8 12.8 12.1 11.7 11.8 6.5
14.2 14.4 14.0 13.9 13.7 13.7 13.9 13.9 14.0 14.4 13.7 14.1 14.2 14.7 14.4 14.6 14.7 14.6 14.3 12.3 12.3 14.2 15.4 14.8 13.3 5.6 9.7 10.6 13.5 14.2 11.5 5.7 7.3 12.9 11.6 12.8 13.0 13.1
14.0 14.3 14.1 14.1 14.3 14.5 14.5 14.6 15.0 14.7 14.5 14.3 14.8 14.4 14.1 14.1 14.9 15.0 14.4 14.7 14.5 14.4 14.4 13.3 13.4 12.8 14.1 13.7 14.6 12.6 12.1 12.2 8.4 4.6 4.4 8.8 13.5 14.6
14.2 14.7 14.7 14.8 14.9 14.9 15.2 15.5 15.4 15.2 14.6 14.3 14.6 14.1 13.7 14.6 15.0 14.9 14.6 14.5 14.5 14.6 14.2 14.5 14.5 14.0 13.8 12.8 12.4 13.9 13.3 12.9 12.9 13.1 12.4 5.5 3.5 3.8